Regional Weather Roundup
Issued by NWS

Current Version | Previous Version | Text Only | Print | Product List | Glossary On
Versions: 1 2 3 4 5 6 7 8 9 10 11 12 13 14 15 16 17 18 19 20 21 22 23 24 25 26 27 28 29 30 31 32 33 34 35 36 37 38 39 40 41 42 43 44 45 46 47 48 49 50
000
ASUS44 KOUN 280410
RWROK

WEATHER ROUNDUP FOR OKLAHOMA
NATIONAL WEATHER SERVICE NORMAN OK
1000 PM CST TUE JAN 27 2015

NOTE: "FAIR" INDICATES FEW OR NO CLOUDS BELOW 12,000 FEET WITH NO
      SIGNIFICANT WEATHER AND/OR OBSTRUCTIONS TO VISIBILITY.

OKZ001>007-009>012-014-015-017-280500-
NORTHWEST OKLAHOMA AND THE PANHANDLE

CITY           SKY/WX    TMP DP  RH WIND       PRES   REMARKS
GAGE           PTCLDY    51  33  50 MISG      30.03F
ENID/WOODRING  CLEAR     50  36  57 S8        30.00F
$$

OKZ016-021>023-033>039-044-045-280500-
SOUTHWEST OKLAHOMA

CITY           SKY/WX    TMP DP  RH WIND       PRES   REMARKS
LAWTON/REGL    PTCLDY    52  41  66 SE3       30.08S
LAWTON/FT SILL PTCLDY    55  42  61 SW2       30.06F
FREDERICK      CLEAR     52  39  61 S7        30.05F
CLINTON        CLEAR     55  40  56 S14       30.08F
HOBART         CLEAR     49  40  71 S13       30.07F
ALTUS AFB      CLEAR     46  38  76 E5        30.07F
$$

OKZ018>020-024>031-280500-
CENTRAL OKLAHOMA

CITY           SKY/WX    TMP DP  RH WIND       PRES   REMARKS
OKLAHOMA CITY  PTCLDY    54  37  52 SW8       30.06S
OKC/WILEY POST CLEAR     58  40  51 S10       30.05F
OKC/TINKER AFB CLEAR     55  38  51 S10       30.06S
STILLWATER     PTCLDY    54  35  48 S3        30.03S
GUTHRIE        PTCLDY    55  35  47 S7        30.04S
$$

OKZ008-013-054>072-280500-
NORTHEAST OKLAHOMA

CITY           SKY/WX    TMP DP  RH WIND       PRES   REMARKS
TULSA          PTCLDY    59  36  42 S10       30.03F
TULSA/JONES    CLEAR     47  35  63 CALM      30.06S
PONCA CITY     CLEAR     60  35  39 S6        30.01S
BARTLESVILLE   CLEAR     54  35  48 S7        30.04F
MUSKOGEE       CLEAR     51  32  48 S7        30.09S
$$

OKZ032-040>043-046>053-073>077-280500-
SOUTH CENTRAL/SOUTHEAST OKLAHOMA

CITY           SKY/WX    TMP DP  RH WIND       PRES   REMARKS
ARDMORE/DWNTWN PTCLDY    55  36  47 CALM      30.09F
MCALESTER      PTCLDY    57  37  47 S6        30.09S
$$




USA.gov is the U.S. government's official web portal to all federal, state and local government web resources and services.